Location: Squirrel Cove
(50.1074°N, 124.9139°W)
Time: 20:00:04
(UTC-08:00)

Envisat - Pass Details

Date: 03 December 2022
Orbit: 763 x 765 km, 98.2° (Epoch: 05 February)

Event Time Altitude Azimuth Distance (km) Brightness Sun altitude
Rises 06:19:08 0° 3° (N) 3,247 6.1 -15.3°
Reaches altitude 10° 06:22:04 10° 346° (NNW) 2,316 5.2 -14.9°
Enters shadow 06:24:44 18° 315° (NW) 1,818 4.4 -14.5°
